Regional Weather Roundup
Issued by NWS

Home | Current Version | Previous Version | Graphics & Text | Print | Product List | Glossary On
Versions: 1 2 3 4 5 6 7 8 9 10 11 12 13 14 15 16 17 18 19 20 21 22 23 24 25 26 27 28 29 30 31 32 33 34 35 36 37 38 39 40 41 42 43 44 45 46 47 48 49 50
000
ASUS43 KMPX 200801
RWRMN
WEATHER ROUNDUP FOR MINNESOTA
NATIONAL WEATHER SERVICE TWIN CITIES/CHANHASSEN MN
200 AM CST FRI JAN 20 2017


NOTE: "FAIR" INDICATES FEW OR NO CLOUDS BELOW 12,000 FEET WITH NO
SIGNIFICANT WEATHER AND/OR OBSTRUCTIONS TO VISIBILITY. N/A MEANS
CURRENT SKY AND/OR WEATHER CONDITIONS ARE NOT AVAILABLE.

MNZ060>063-068>070-200900-
   Twin Cities Metro

CITY           SKY/WX    TMP DP  RH WIND       PRES   REMARKS
TWIN CITIES    LGT RAIN  35  33  92 SE8       29.65F FOG     WCI  29
ST PAUL        LGT RAIN  35  35 100 SE7       29.66F FOG     WCI  29
CRYSTAL        LGT RAIN  36  33  89 E6        29.63F FOG
BLAINE         DRIZZLE   37  37 100 SE6       29.64F
LAKEVILLE      DRZL/FOG  32  32 100 E7        29.64F VSB 1   WCI  26
EDEN PRAIRIE   LGT RAIN  36  34  92 E8        29.63F FOG
SOUTH ST PAUL  LGT RAIN  36  36  99 SE5       29.65F
LAKE ELMO      MIX PCPN  36  36 100 E3        29.66F
$$
MNZ001>005-007-008-013>017-022>024-027-028-200900-
   Northwest Minnesota

CITY           SKY/WX    TMP DP  RH WIND       PRES   REMARKS
BEMIDJI        CLOUDY    33  33 100 S7        29.60R FOG     WCI  27
HALLOCK        CLOUDY    34  34 100 S14       29.54S FOG     WCI  24
ROSEAU         CLOUDY    36  30  80 SW12      29.58R HAZE
WARROAD        CLOUDY    36  30  80 SW8       29.57S FOG
THIEF RVR FALL CLOUDY    34  33  96 S10       29.57S FOG     WCI  26
CROOKSTON      CLOUDY    36  36 100 S13       29.56S FOG
FOSSTON        CLOUDY    34  32  93 SE12      29.59R FOG     WCI  25
DETROIT LAKES  FOG       34  34 100 SE10      29.59R VSB 1   WCI  26
MOORHEAD       CLOUDY    34  34 100 S10       29.58R FOG     WCI  26
PARK RAPIDS    FOG       34  31  88 S5        29.59F VSB 1/4 WCI  30
MAHNOMEN       CLOUDY    34  34  99 SE9       29.58R FOG     WCI  27
$$
MNZ006-009>011-018-025>026-200900-
   North Central Minnesota

CITY           SKY/WX    TMP DP  RH WIND       PRES   REMARKS
BAUDETTE       FOG       36  36 100 S6        29.58R VSB 1/2
FLAG ISLAND    FOG       30  28  93 S6        29.56S VSB 1/2 WCI  24
INTL FALLS       N/A     33  31  92 CALM      29.60S FOG
WASKISH        CLOUDY    37  36  93 S8        29.61R FOG
BIG FORK       MOCLDY    30  30 100 S5        29.63R FOG     WCI  25
LONGVILLE      CLOUDY    34  32  93 CALM      29.62R FOG
GRAND RAPIDS   CLOUDY    27  26  96 CALM      29.65R FOG
CRANE LAKE     CLEAR     23  23 100 CALM      29.66R FOG
ORR            CLEAR     30  28  93 CALM      29.62R FOG
COOK           CLEAR     34  30  86 CALM      29.64S
WALKER         CLOUDY    34  33  98 SW5       29.60F FOG     WCI  30
$$
MNZ012-019>021-037-200900-
   Northeast Minnesota

CITY           SKY/WX    TMP DP  RH WIND       PRES   REMARKS
DULUTH         CLOUDY    36  32  85 S8        29.65S
ELY            CLEAR     30  30 100 SE5       29.66S FOG     WCI  25
HIBBING        FOG       21  21 100 CALM      29.64S VSB 1/2
EVELETH        CLEAR     22  21  95 NE5       29.65F FOG     WCI  16
DULUTH HARBOR  FOG       34  30  86 CALM      29.70R VSB 1
TWO HARBORS    CLOUDY    30  27  86 CALM      29.65F HAZE
SILVER BAY     CLOUDY    27  27 100 CALM      29.66S FOG
GRAND MARAIS     N/A     28  26  92 NW3       29.70F
G MARAIS ARPRT FOG       25  21  86 NW3       29.67F VSB 1/4
$$
MNZ029>031-032-039>041-046>048-054>057-064-200900-
   West Central Minnesota

CITY           SKY/WX    TMP DP  RH WIND       PRES   REMARKS
FERGUS FALLS   FOG       36  36 100 SE12      29.62S VSB 1
WHEATON        CLOUDY    39  39 100 SE9       29.58S FOG
MORRIS         FOG       34  34 100 SE9       29.57F VSB 1/4 WCI  26
ALEXANDRIA     FOG       33  33 100 SE8       29.60S VSB 3/4 WCI  26
ELBOW LAKE     CLOUDY    33  33 100 E7        29.58F FOG     WCI  27
WADENA         DRZL/FOG  32  32 100 CALM      29.60S VSB 1/4
GLENWOOD       FOG       34  34 100 SE6       29.60S VSB 1/4 WCI  29
APPLETON       FOG       36  34  93 E9        29.58S VSB 1
BENSON         CLOUDY    36  32  87 S8          N/A
ORTONVILLE     FOG       34  32  93 CALM      29.56S VSB 1/2
MADISON        FOG       37  37 100 SE8       29.57S VSB 1/2
WILLMAR        FOG       36  36 100 CALM      29.60F VSB 1/4
$$
MNZ033>034-036-042>043-049>051-058-059-200900-
   Central Minnesota

CITY           SKY/WX    TMP DP  RH WIND       PRES   REMARKS
ST CLOUD       CLOUDY    34  34 100 E6        29.62F FOG     WCI  29
SAUK CENTRE    CLOUDY    33  33 100 SE6       29.61S FOG     WCI  27
PAYNESVILLE    FOG       34  34 100 E6        29.61F VSB 1   WCI  29
AITKIN         CLOUDY    37  30  75 SE5       29.61S
PINE RIVER     CLOUDY    32  32 100 CALM      29.65F FOG
BRAINERD       CLOUDY    34  32  92 CALM      29.62S FOG
STAPLES          N/A     34  34 100 CALM      29.61S FOG
LONG PRAIRIE   CLOUDY    32  32 100 E6        29.61S FOG     WCI  26
LITTLE FALLS   CLOUDY    34  32  93 SE7       29.62S FOG     WCI  28
LITCHFIELD     FOG       36  34  93 E7        29.60F VSB 1/2
BUFFALO        RAIN      34  33  95 E5        29.64S WCI  30
MAPLE LAKE     RAIN      35  35  99 MISG      29.64S VSB 1
HUTCHINSON     LGT RAIN  35  35 100 E8        29.61F VSB 3/4 WCI  28
$$
MNZ037-044-045-052-053-200900-
   East Central Minnesota

CITY           SKY/WX    TMP DP  RH WIND       PRES   REMARKS
PRINCETON      DRIZZLE   36  34  93 E6        29.65S
MORA           DRIZZLE   34  32  93 SE5       29.67F WCI  30
CAMBRIDGE      DRIZZLE   37  32  81 E5        29.64S
RUSH CITY      RAIN      34  34 100 CALM      29.67S
MOOSE LAKE     MOCLDY    36  32  87 CALM      29.64F
HINCKLEY       LGT RAIN  36  34  93 SE3       29.66F
CLOQUET        MOCLDY    34  30  86 SE3       29.65F FOG
MCGREGOR       CLOUDY    36  32  87 S6        29.63S
$$
MNZ071>073-080-081-089-090-097-098-200900-
   Southwest Minnesota

CITY           SKY/WX    TMP DP  RH WIND       PRES   REMARKS
MONTEVIDEO     FOG       34  34 100 S7        29.60S VSB 1/2 WCI  28
GRANITE FALLS  FOG       35  35  99 E6        29.60S VSB 1/2 WCI  30
CANBY          FOG       34  34  99 CALM      29.57S VSB 1/4
MARSHALL       FOG       34  34 100 SE6       29.57F VSB 1/4 WCI  29
REDWOOD FALLS  FOG       34  32  92 SE6       29.59F VSB 1/4 WCI  29
OLIVIA         FOG       34  32  93 SE5       29.58F VSB 1/2 WCI  30
PIPESTONE      FOG       37  36  93 SW8       29.54F VSB 3/4
WINDOM         FOG       34  34 100 CALM      29.57F VSB 1/4
WORTHINGTON    CLOUDY    35  35 100 SW8       29.57S FOG     WCI  29
JACKSON        FOG       32  32 100 CALM      29.58F VSB 1/2
TRACY          FOG       35  35 100 SE3       29.57F VSB 1/2
SLAYTON        CLOUDY    35  35 100 S7        29.56F FOG     WCI  29
$$
MNZ065>067-074>077-082>085-091>093-200900-
   South Central Minnesota

CITY           SKY/WX    TMP DP  RH WIND       PRES   REMARKS
MANKATO        LGT RAIN  34  33  96 SE9       29.62S FOG     WCI  27
NEW ULM        LGT RAIN  34  34 100 E5        29.61R VSB 1/2 WCI  30
ST JAMES       FOG       34  34 100 E3        29.61R VSB 1/2
FAIRMONT       FOG       33  33 100 SE3       29.60R VSB 1/4
GLENCOE        LGT RAIN  35  35 100 E7        29.61F WCI  29
FARIBAULT      LGT RAIN  36  34  93 E5        29.64S
OWATONNA       CLOUDY    36  34  93 E8        29.62F FOG
WASECA         DRIZZLE   34  34 100 E8        29.63S WCI  27
ALBERT LEA     CLOUDY    34  34 100 SE8       29.61S FOG     WCI  27
$$
MNZ078>079-086>088-094>096-200900-
   Southeast Minnesota

CITY           SKY/WX    TMP DP  RH WIND       PRES   REMARKS
ROCHESTER      CLOUDY    33  33 100 SE10      29.64S FOG     WCI  25
RED WING       DRIZZLE   36  34  93 E5        29.66F
STANTON        RAIN      36  34  91 SE6       29.63F
DODGE CENTER   MIX PCPN  34  34 100 CALM      29.63S
WINONA         CLOUDY    34  34 100 CALM      29.69S FOG
AUSTIN         DRIZZLE   34  32  93 SE9       29.63R WCI  26
$$
ABBREVIATIONS USED IN REMARKS
   TC - TEMPERATURES IN CELSIUS
  WCI - WIND CHILL INDEX
   HX - HEAT INDEX
  VSB - VISIBILITY
$$




USA.gov is the U.S. government's official web portal to all federal, state and local government web resources and services.